| time (UTC) | temp F | wind direction | speed knots | gust knots | rain 1hr in | rain 24hr in | rain mn in | humidity % | barometer mb |
| 20260902194635 | 96 | 340 | 0.9 | 1.7 | 0.00 | 0.00 | 0.00 | 52 | 1036.1 |
| 20260902194131 | 95 | 109 | 0.0 | 0.9 | 0.00 | 0.00 | 0.00 | 48 | 1036.2 |
| 20260902193626 | 95 | 9 | 0.0 | 0.0 | 0.00 | 0.00 | 0.00 | 50 | 1036.5 |
| 20260902193121 | 95 | 23 | 0.0 | 0.0 | 0.00 | 0.00 | 0.00 | 52 | 1036.2 |
| 20260902192620 | 95 | 24 | 0.9 | 0.9 | 0.00 | 0.00 | 0.00 | 53 | 1036.4 |
| 20260902192118 | 95 | 35 | 0.0 | 0.0 | 0.00 | 0.00 | 0.00 | 51 | 1036.6 |
| 20260902191613 | 95 | 356 | 0.0 | 0.0 | 0.00 | 0.00 | 0.00 | 55 | 1036.7 |
| 20260902191108 | 95 | 182 | 1.7 | 2.6 | 0.00 | 0.00 | 0.00 | 53 | 1036.8 |
| 20260902190604 | 96 | 225 | 0.9 | 0.9 | 0.00 | 0.00 | 0.00 | 51 | 1036.9 |
| 20260902190059 | 97 | 351 | 0.9 | 1.7 | 0.00 | 0.00 | 0.00 | 53 | 1036.7 |
| 20260902185554 | 96 | 11 | 0.0 | 0.0 | 0.00 | 0.00 | 0.00 | 52 | 1036.8 |
| 20260902185050 | 95 | 32 | 0.0 | 0.0 | 0.00 | 0.00 | 0.00 | 51 | 1036.8 |
| 20260902184544 | 94 | 18 | 0.0 | 0.0 | 0.00 | 0.00 | 0.00 | 55 | 1037.0 |
| 20260902184039 | 96 | 27 | 0.0 | 0.9 | 0.00 | 0.00 | 0.00 | 54 | 1037.1 |
| 20260902183531 | 95 | 337 | 0.9 | 1.7 | 0.00 | 0.00 | 0.00 | 53 | 1037.1 |
| 20260902183027 | 94 | 13 | 0.0 | 0.0 | 0.00 | 0.00 | 0.00 | 55 | 1037.5 |
| 20260902182523 | 96 | 5 | 0.9 | 0.9 | 0.00 | 0.00 | 0.00 | 52 | 1037.5 |
| 20260902182019 | 95 | 19 | 0.0 | 0.0 | 0.00 | 0.00 | 0.00 | 53 | 1037.4 |
| 20260902181514 | 93 | 23 | 0.0 | 0.0 | 0.00 | 0.00 | 0.00 | 55 | 1037.5 |
| 20260902181008 | 93 | 26 | 0.9 | 1.7 | 0.00 | 0.00 | 0.00 | 57 | 1037.5 |
| 20260902180503 | 95 | 2 | 0.0 | 0.0 | 0.00 | 0.00 | 0.00 | 56 | 1037.4 |
| 20260902175959 | 95 | 22 | 0.0 | 0.9 | 0.00 | 0.00 | 0.00 | 56 | 1037.3 |
| 20260902175459 | 95 | 357 | 1.7 | 1.7 | 0.00 | 0.00 | 0.00 | 52 | 1037.5 |
| 20260902174954 | 95 | 13 | 0.0 | 0.0 | 0.00 | 0.00 | 0.00 | 55 | 1037.6 |
| 20260902174451 | 94 | 7 | 0.0 | 0.0 | 0.00 | 0.00 | 0.00 | 56 | 1037.6 |
| 20260902173946 | 93 | 24 | 0.0 | 0.0 | 0.00 | 0.00 | 0.00 | 56 | 1037.7 |
| 20260902173446 | 94 | 58 | 0.9 | 0.9 | 0.00 | 0.00 | 0.00 | 55 | 1037.7 |
| 20260902172941 | 94 | 354 | 0.0 | 0.9 | 0.00 | 0.00 | 0.00 | 54 | 1037.9 |
| 20260902172440 | 95 | 0 | 0.0 | 0.0 | 0.00 | 0.00 | 0.00 | 56 | 1038.1 |
| 20260902171935 | 94 | 1 | 0.0 | 0.0 | 0.00 | 0.00 | 0.00 | 54 | 1038.1 |
| 20260902171431 | 95 | 70 | 0.9 | 0.9 | 0.00 | 0.00 | 0.00 | 53 | 1038.0 |
| 20260902170927 | 95 | 180 | 1.7 | 1.7 | 0.00 | 0.00 | 0.00 | 54 | 1038.3 |
| 20260902170422 | 94 | 18 | 0.0 | 0.0 | 0.00 | 0.00 | 0.00 | 54 | 1038.3 |
| 20260902165917 | 94 | 331 | 0.0 | 0.0 | 0.00 | 0.00 | 0.00 | 54 | 1038.4 |
| 20260902165417 | 94 | 5 | 0.0 | 0.0 | 0.00 | 0.00 | 0.00 | 56 | 1038.6 |
| 20260902164912 | 93 | 27 | 0.0 | 0.0 | 0.00 | 0.00 | 0.00 | 56 | 1038.5 |
| 20260902164406 | 92 | 77 | 0.9 | 0.9 | 0.00 | 0.00 | 0.00 | 56 | 1038.7 |
| 20260902163906 | 92 | 13 | 0.0 | 0.0 | 0.00 | 0.00 | 0.00 | 60 | 1038.5 |
| 20260902163401 | 92 | 8 | 0.9 | 1.7 | 0.00 | 0.00 | 0.00 | 58 | 1038.6 |
| 20260902162859 | 92 | 0 | 0.0 | 0.0 | 0.00 | 0.00 | 0.00 | 57 | 1038.7 |
| 20260902162354 | 93 | 6 | 0.0 | 0.0 | 0.00 | 0.00 | 0.00 | 61 | 1038.6 |
| 20260902161854 | 92 | 329 | 0.0 | 0.9 | 0.00 | 0.00 | 0.00 | 57 | 1038.8 |
| 20260902161349 | 92 | 46 | 0.0 | 0.0 | 0.00 | 0.00 | 0.00 | 57 | 1038.8 |
| 20260902160846 | 91 | 168 | 0.9 | 0.9 | 0.00 | 0.00 | 0.00 | 60 | 1038.9 |
| 20260902160341 | 91 | 13 | 0.0 | 0.0 | 0.00 | 0.00 | 0.00 | 61 | 1039.0 |
| 20260902155839 | 91 | 359 | 0.0 | 0.0 | 0.00 | 0.00 | 0.00 | 61 | 1039.1 |
| 20260902155338 | 91 | 351 | 0.0 | 0.0 | 0.00 | 0.00 | 0.00 | 57 | 1039.2 |
| 20260902154833 | 92 | 25 | 0.0 | 0.0 | 0.00 | 0.00 | 0.00 | 58 | 1039.1 |
| 20260902154329 | 92 | 5 | 0.0 | 0.0 | 0.00 | 0.00 | 0.00 | 59 | 1039.3 |
| 20260902153827 | 91 | 16 | 0.0 | 0.0 | 0.00 | 0.00 | 0.00 | 59 | 1039.3 |
| 20260902153327 | 91 | 245 | 0.0 | 0.0 | 0.00 | 0.00 | 0.00 | 58 | 1039.2 |
| 20260902152823 | 91 | 17 | 0.0 | 0.0 | 0.00 | 0.00 | 0.00 | 61 | 1038.9 |
| 20260902152319 | 90 | 208 | 0.0 | 0.0 | 0.00 | 0.00 | 0.00 | 63 | 1039.1 |
| 20260902151814 | 90 | 24 | 0.0 | 0.0 | 0.00 | 0.00 | 0.00 | 66 | 1039.1 |
| 20260902151309 | 89 | 23 | 0.0 | 0.0 | 0.00 | 0.00 | 0.00 | 67 | 1039.1 |
| 20260902150803 | 89 | 34 | 0.0 | 0.0 | 0.00 | 0.00 | 0.00 | 67 | 1039.3 |
| 20260902150300 | 89 | 280 | 0.0 | 0.0 | 0.00 | 0.00 | 0.00 | 70 | 1039.0 |
| 20260902145759 | 89 | 305 | 0.0 | 0.0 | 0.00 | 0.00 | 0.00 | 70 | 1039.1 |
| 20260902145254 | 89 | 1 | 0.0 | 0.0 | 0.00 | 0.00 | 0.00 | 71 | 1039.2 |
| 20260902144750 | 89 | 334 | 0.0 | 0.0 | 0.00 | 0.00 | 0.00 | 70 | 1039.1 |
| 20260902144246 | 90 | 347 | 0.0 | 0.0 | 0.00 | 0.00 | 0.00 | 70 | 1039.0 |
| 20260902143740 | 90 | 14 | 0.0 | 0.0 | 0.00 | 0.00 | 0.00 | 69 | 1039.2 |
| 20260902143236 | 89 | 351 | 0.0 | 0.0 | 0.00 | 0.00 | 0.00 | 71 | 1038.8 |
| 20260902142731 | 87 | 357 | 0.0 | 0.0 | 0.00 | 0.00 | 0.00 | 72 | 1039.0 |
| 20260902142227 | 86 | 11 | 0.0 | 0.0 | 0.00 | 0.00 | 0.00 | 73 | 1039.0 |
| 20260902141721 | 86 | 341 | 0.0 | 0.0 | 0.00 | 0.00 | 0.00 | 78 | 1038.9 |
| 20260902141217 | 85 | 338 | 0.0 | 0.0 | 0.00 | 0.00 | 0.00 | 79 | 1039.1 |
| 20260902140706 | 84 | 359 | 0.0 | 0.0 | 0.00 | 0.00 | 0.00 | 81 | 1038.9 |
| 20260902140207 | 83 | 7 | 0.0 | 0.0 | 0.00 | 0.00 | 0.00 | 83 | 1039.0 |
| 20260902135706 | 83 | 355 | 0.0 | 0.0 | 0.00 | 0.00 | 0.00 | 83 | 1039.0 |
| 20260902135202 | 83 | 353 | 0.0 | 0.0 | 0.00 | 0.00 | 0.00 | 84 | 1038.9 |
| 20260902134656 | 82 | 4 | 0.0 | 0.0 | 0.00 | 0.00 | 0.00 | 83 | 1039.0 |
| 20260902134156 | 81 | 350 | 0.0 | 0.0 | 0.00 | 0.00 | 0.00 | 87 | 1039.2 |
| 20260902133652 | 80 | 329 | 0.0 | 0.0 | 0.00 | 0.00 | 0.00 | 88 | 1039.3 |
| 20260902133151 | 79 | 336 | 0.0 | 0.0 | 0.00 | 0.00 | 0.00 | 90 | 1039.3 |
| 20260902132647 | 79 | 335 | 0.0 | 0.0 | 0.00 | 0.00 | 0.00 | 91 | 1039.2 |
| 20260902132142 | 78 | 305 | 0.0 | 0.0 | 0.00 | 0.00 | 0.00 | 92 | 1039.1 |
| 20260902131638 | 78 | 337 | 0.0 | 0.0 | 0.00 | 0.00 | 0.00 | 92 | 1039.1 |
| 20260902131133 | 78 | 334 | 0.0 | 0.0 | 0.00 | 0.00 | 0.00 | 92 | 1039.2 |
| 20260902130629 | 78 | 328 | 0.0 | 0.0 | 0.00 | 0.00 | 0.00 | 93 | 1039.1 |
| 20260902130124 | 77 | 334 | 0.0 | 0.0 | 0.00 | 0.00 | 0.00 | 94 | 1039.0 |
| 20260902125620 | 77 | 325 | 0.0 | 0.0 | 0.00 | 0.00 | 0.00 | 94 | 1038.9 |
| 20260902125114 | 77 | 292 | 0.0 | 0.0 | 0.00 | 0.00 | 0.00 | 94 | 1039.0 |
| 20260902124612 | 76 | 310 | 0.0 | 0.0 | 0.00 | 0.00 | 0.00 | 95 | 1039.2 |
| 20260902124111 | 76 | 298 | 0.0 | 0.0 | 0.00 | 0.00 | 0.00 | 96 | 1038.9 |
| 20260902123607 | 76 | 280 | 0.0 | 0.0 | 0.00 | 0.00 | 0.00 | 96 | 1039.1 |
| 20260902123101 | 76 | 294 | 0.0 | 0.0 | 0.00 | 0.00 | 0.00 | 96 | 1039.0 |
| 20260902122556 | 75 | 343 | 0.0 | 0.0 | 0.00 | 0.00 | 0.00 | 96 | 1038.8 |
| 20260902122051 | 75 | 342 | 0.0 | 0.0 | 0.00 | 0.00 | 0.00 | 97 | 1038.8 |
| 20260902121546 | 75 | 328 | 0.0 | 0.0 | 0.00 | 0.00 | 0.00 | 97 | 1038.9 |
| 20260902121041 | 75 | 309 | 0.0 | 0.0 | 0.00 | 0.00 | 0.00 | 97 | 1038.7 |
| 20260902120537 | 75 | 326 | 0.0 | 0.0 | 0.00 | 0.00 | 0.00 | 97 | 1038.8 |
| 20260902120032 | 75 | 338 | 0.0 | 0.0 | 0.00 | 0.00 | 0.00 | 97 | 1038.8 |
| 20260902115527 | 75 | 338 | 0.0 | 0.0 | 0.00 | 0.00 | 0.00 | 97 | 1038.6 |
| 20260902115024 | 75 | 339 | 0.0 | 0.0 | 0.00 | 0.00 | 0.00 | 97 | 1038.7 |
| 20260902114519 | 75 | 339 | 0.0 | 0.0 | 0.00 | 0.00 | 0.00 | 97 | 1038.5 |
| 20260902114019 | 75 | 339 | 0.0 | 0.0 | 0.00 | 0.00 | 0.00 | 97 | 1038.6 |
| 20260902113514 | 75 | 339 | 0.0 | 0.0 | 0.00 | 0.00 | 0.00 | 97 | 1038.6 |
| 20260902113010 | 75 | 339 | 0.0 | 0.0 | 0.00 | 0.00 | 0.00 | 97 | 1038.6 |
| 20260902112505 | 75 | 340 | 0.0 | 0.0 | 0.00 | 0.00 | 0.00 | 97 | 1038.6 |
| 20260902112001 | 75 | 341 | 0.0 | 0.0 | 0.00 | 0.00 | 0.00 | 96 | 1038.5 |
| 20260902111457 | 75 | 340 | 0.0 | 0.0 | 0.00 | 0.00 | 0.00 | 96 | 1038.4 |
| 20260902110953 | 75 | 332 | 0.0 | 0.0 | 0.00 | 0.00 | 0.00 | 96 | 1038.2 |
| 20260902110448 | 75 | 347 | 0.0 | 0.0 | 0.00 | 0.00 | 0.00 | 96 | 1038.5 |
| 20260902105943 | 75 | 346 | 0.0 | 0.0 | 0.00 | 0.00 | 0.00 | 96 | 1038.3 |
| 20260902105433 | 75 | 346 | 0.0 | 0.0 | 0.00 | 0.00 | 0.00 | 96 | 1038.2 |
| 20260902104932 | 75 | 347 | 0.0 | 0.0 | 0.00 | 0.00 | 0.00 | 96 | 1038.1 |
| 20260902104429 | 75 | 350 | 0.0 | 0.0 | 0.00 | 0.00 | 0.00 | 96 | 1038.1 |
| 20260902103923 | 75 | 350 | 0.0 | 0.0 | 0.00 | 0.00 | 0.00 | 96 | 1038.0 |
| 20260902103418 | 75 | 351 | 0.0 | 0.0 | 0.00 | 0.00 | 0.00 | 96 | 1038.1 |
| 20260902102913 | 75 | 352 | 0.0 | 0.0 | 0.00 | 0.00 | 0.00 | 96 | 1038.1 |
| 20260902102411 | 75 | 352 | 0.0 | 0.0 | 0.00 | 0.00 | 0.00 | 95 | 1037.9 |
| 20260902101906 | 75 | 351 | 0.0 | 0.0 | 0.00 | 0.00 | 0.00 | 95 | 1037.9 |
| 20260902101400 | 75 | 351 | 0.0 | 0.0 | 0.00 | 0.00 | 0.00 | 95 | 1037.9 |
| 20260902100900 | 76 | 351 | 0.0 | 0.0 | 0.00 | 0.00 | 0.00 | 95 | 1037.9 |
| 20260902100354 | 75 | 351 | 0.0 | 0.0 | 0.00 | 0.00 | 0.00 | 95 | 1037.7 |
| 20260902095849 | 75 | 351 | 0.0 | 0.0 | 0.00 | 0.00 | 0.00 | 95 | 1038.0 |
| 20260902095349 | 75 | 352 | 0.0 | 0.0 | 0.00 | 0.00 | 0.00 | 95 | 1038.0 |
| 20260902094843 | 76 | 352 | 0.0 | 0.0 | 0.00 | 0.00 | 0.00 | 95 | 1037.9 |
| 20260902094340 | 76 | 350 | 0.0 | 0.0 | 0.00 | 0.00 | 0.00 | 94 | 1037.6 |
| 20260902093838 | 76 | 350 | 0.0 | 0.0 | 0.00 | 0.00 | 0.00 | 94 | 1037.7 |
| 20260902093334 | 76 | 352 | 0.0 | 0.0 | 0.00 | 0.00 | 0.00 | 94 | 1037.6 |
| 20260902092832 | 76 | 352 | 0.0 | 0.0 | 0.00 | 0.00 | 0.00 | 94 | 1037.6 |
| 20260902092329 | 76 | 352 | 0.0 | 0.0 | 0.00 | 0.00 | 0.00 | 94 | 1037.3 |
| 20260902091823 | 76 | 351 | 0.0 | 0.0 | 0.00 | 0.00 | 0.00 | 94 | 1037.5 |
| 20260902091319 | 76 | 351 | 0.0 | 0.0 | 0.00 | 0.00 | 0.00 | 94 | 1037.6 |
| 20260902090815 | 76 | 351 | 0.0 | 0.0 | 0.00 | 0.00 | 0.00 | 94 | 1037.5 |
| 20260902090314 | 76 | 352 | 0.0 | 0.0 | 0.00 | 0.00 | 0.00 | 94 | 1037.4 |
| 20260902085808 | 76 | 352 | 0.0 | 0.0 | 0.00 | 0.00 | 0.00 | 94 | 1037.3 |
| 20260902085306 | 76 | 352 | 0.0 | 0.0 | 0.00 | 0.00 | 0.00 | 94 | 1037.3 |
| 20260902084758 | 76 | 351 | 0.0 | 0.0 | 0.00 | 0.00 | 0.00 | 94 | 1037.3 |
| 20260902084255 | 76 | 351 | 0.0 | 0.0 | 0.00 | 0.00 | 0.00 | 94 | 1037.2 |
| 20260902083749 | 76 | 351 | 0.0 | 0.0 | 0.00 | 0.00 | 0.00 | 94 | 1037.3 |
| 20260902083244 | 76 | 351 | 0.0 | 0.0 | 0.00 | 0.00 | 0.00 | 94 | 1037.2 |
| 20260902082739 | 76 | 351 | 0.0 | 0.0 | 0.00 | 0.00 | 0.00 | 93 | 1037.1 |
| 20260902082236 | 76 | 351 | 0.0 | 0.0 | 0.00 | 0.00 | 0.00 | 93 | 1037.2 |
| 20260902081732 | 76 | 351 | 0.0 | 0.0 | 0.00 | 0.00 | 0.00 | 93 | 1037.2 |
| 20260902081227 | 76 | 351 | 0.0 | 0.0 | 0.00 | 0.00 | 0.00 | 93 | 1037.3 |
| 20260902080722 | 76 | 351 | 0.0 | 0.0 | 0.00 | 0.00 | 0.00 | 93 | 1037.0 |
| 20260902080219 | 76 | 352 | 0.0 | 0.0 | 0.00 | 0.00 | 0.00 | 93 | 1036.8 |
| 20260902075718 | 76 | 352 | 0.0 | 0.0 | 0.00 | 0.00 | 0.00 | 93 | 1037.0 |
| 20260902075215 | 76 | 352 | 0.0 | 0.0 | 0.00 | 0.00 | 0.00 | 92 | 1037.1 |
| 20260902074714 | 77 | 352 | 0.0 | 0.0 | 0.00 | 0.00 | 0.00 | 92 | 1037.2 |
| 20260902074210 | 77 | 352 | 0.0 | 0.0 | 0.00 | 0.00 | 0.00 | 92 | 1036.9 |
| 20260902073705 | 77 | 351 | 0.0 | 0.0 | 0.00 | 0.00 | 0.00 | 91 | 1037.0 |
| 20260902073201 | 77 | 351 | 0.0 | 0.0 | 0.00 | 0.00 | 0.00 | 91 | 1037.2 |
| 20260902072657 | 77 | 348 | 0.0 | 0.0 | 0.00 | 0.00 | 0.00 | 91 | 1037.2 |
| 20260902072153 | 77 | 4 | 0.0 | 0.0 | 0.00 | 0.00 | 0.00 | 91 | 1037.0 |
| 20260902071649 | 77 | 3 | 0.0 | 0.0 | 0.00 | 0.00 | 0.00 | 91 | 1036.9 |
| 20260902071144 | 77 | 358 | 0.0 | 0.0 | 0.00 | 0.00 | 0.00 | 91 | 1036.9 |
| 20260902070640 | 77 | 342 | 0.0 | 0.0 | 0.00 | 0.00 | 0.00 | 91 | 1037.2 |
| 20260902070139 | 77 | 265 | 0.0 | 0.0 | 0.00 | 0.00 | 0.00 | 91 | 1037.1 |
| 20260902065638 | 77 | 3 | 0.0 | 0.0 | 0.00 | 0.00 | 0.00 | 90 | 1037.1 |
| 20260902065134 | 78 | 3 | 0.0 | 0.0 | 0.00 | 0.00 | 0.00 | 90 | 1037.1 |
| 20260902064629 | 77 | 4 | 0.0 | 0.0 | 0.00 | 0.00 | 0.00 | 90 | 1037.2 |
| 20260902064125 | 77 | 4 | 0.0 | 0.0 | 0.00 | 0.00 | 0.00 | 90 | 1037.2 |
| 20260902063620 | 77 | 5 | 0.0 | 0.0 | 0.00 | 0.00 | 0.00 | 90 | 1037.0 |
| 20260902063115 | 78 | 6 | 0.0 | 0.0 | 0.00 | 0.00 | 0.00 | 89 | 1037.1 |
| 20260902062613 | 78 | 6 | 0.0 | 0.0 | 0.00 | 0.00 | 0.00 | 89 | 1037.1 |
| 20260902062108 | 78 | 5 | 0.0 | 0.0 | 0.00 | 0.00 | 0.00 | 88 | 1037.2 |
| 20260902061603 | 78 | 6 | 0.0 | 0.0 | 0.00 | 0.00 | 0.00 | 88 | 1037.1 |
| 20260902061059 | 78 | 6 | 0.0 | 0.0 | 0.00 | 0.00 | 0.00 | 87 | 1037.0 |
| 20260902060555 | 78 | 19 | 0.0 | 0.0 | 0.00 | 0.00 | 0.00 | 87 | 1037.0 |
| 20260902060051 | 78 | 347 | 0.0 | 0.0 | 0.00 | 0.00 | 0.00 | 87 | 1037.2 |
| 20260902055547 | 78 | 12 | 0.0 | 0.0 | 0.00 | 0.00 | 0.00 | 87 | 1037.2 |
| 20260902055042 | 78 | 100 | 0.0 | 0.0 | 0.00 | 0.00 | 0.00 | 88 | 1037.1 |
| 20260902054537 | 79 | 100 | 0.0 | 0.0 | 0.00 | 0.00 | 0.00 | 87 | 1037.4 |
| 20260902054033 | 79 | 280 | 0.0 | 0.0 | 0.00 | 0.00 | 0.00 | 86 | 1037.1 |
| 20260902053532 | 79 | 336 | 0.0 | 0.0 | 0.00 | 0.00 | 0.00 | 85 | 1037.3 |
| 20260902053027 | 79 | 348 | 0.0 | 0.0 | 0.00 | 0.00 | 0.00 | 84 | 1037.3 |
| 20260902052522 | 79 | 348 | 0.0 | 0.0 | 0.00 | 0.00 | 0.00 | 85 | 1037.3 |
| 20260902052018 | 79 | 349 | 0.0 | 0.0 | 0.00 | 0.00 | 0.00 | 86 | 1037.2 |
| 20260902051517 | 79 | 349 | 0.0 | 0.0 | 0.00 | 0.00 | 0.00 | 85 | 1037.2 |
| 20260902051016 | 79 | 349 | 0.0 | 0.0 | 0.00 | 0.00 | 0.00 | 85 | 1037.3 |
| 20260902050511 | 79 | 349 | 0.0 | 0.0 | 0.00 | 0.00 | 0.00 | 84 | 1037.3 |
| 20260902050008 | 80 | 348 | 0.0 | 0.0 | 0.00 | 0.00 | 0.00 | 84 | 1037.3 |
| 20260902045501 | 80 | 348 | 0.0 | 0.0 | 0.00 | 0.00 | 0.00 | 84 | 1037.3 |
| 20260902044958 | 80 | 357 | 0.0 | 0.0 | 0.00 | 0.00 | 0.00 | 85 | 1037.3 |
| 20260902044452 | 79 | 357 | 0.0 | 0.0 | 0.00 | 0.00 | 0.00 | 85 | 1037.2 |
| 20260902043948 | 80 | 358 | 0.0 | 0.0 | 0.00 | 0.00 | 0.00 | 84 | 1037.4 |
| 20260902043443 | 80 | 358 | 0.0 | 0.0 | 0.00 | 0.00 | 0.00 | 84 | 1037.3 |
| 20260902042938 | 80 | 358 | 0.0 | 0.0 | 0.00 | 0.00 | 0.00 | 84 | 1037.2 |
| 20260902042438 | 80 | 358 | 0.0 | 0.0 | 0.00 | 0.00 | 0.00 | 83 | 1037.3 |
| 20260902041933 | 80 | 358 | 0.0 | 0.0 | 0.00 | 0.00 | 0.00 | 82 | 1037.1 |
| 20260902041427 | 80 | 358 | 0.0 | 0.0 | 0.00 | 0.00 | 0.00 | 82 | 1037.6 |
| 20260902040926 | 80 | 358 | 0.0 | 0.0 | 0.00 | 0.00 | 0.00 | 81 | 1037.4 |
| 20260902040421 | 80 | 359 | 0.0 | 0.0 | 0.00 | 0.00 | 0.00 | 81 | 1037.5 |
| 20260902035920 | 81 | 359 | 0.0 | 0.0 | 0.00 | 0.00 | 0.00 | 81 | 1037.4 |
| 20260902035416 | 81 | 359 | 0.0 | 0.0 | 0.00 | 0.00 | 0.00 | 81 | 1037.3 |
| 20260902034914 | 81 | 359 | 0.0 | 0.0 | 0.00 | 0.00 | 0.00 | 80 | 1037.3 |
| 20260902034409 | 81 | 353 | 0.0 | 0.0 | 0.00 | 0.00 | 0.00 | 79 | 1037.5 |
| 20260902033909 | 81 | 345 | 0.0 | 0.0 | 0.00 | 0.00 | 0.00 | 80 | 1037.3 |
| 20260902033403 | 82 | 207 | 0.0 | 0.0 | 0.00 | 0.00 | 0.00 | 79 | 1037.4 |
| 20260902032902 | 82 | 328 | 0.0 | 0.0 | 0.00 | 0.00 | 0.00 | 79 | 1037.6 |
| 20260902032356 | 82 | 307 | 0.0 | 0.0 | 0.00 | 0.00 | 0.00 | 79 | 1037.5 |
| 20260902031856 | 82 | 357 | 0.0 | 0.0 | 0.00 | 0.00 | 0.00 | 76 | 1037.5 |
| 20260902031347 | 83 | 357 | 0.0 | 0.0 | 0.00 | 0.00 | 0.00 | 76 | 1037.6 |
| 20260902030837 | 83 | 358 | 0.0 | 0.0 | 0.00 | 0.00 | 0.00 | 76 | 1037.5 |
| 20260902030331 | 83 | 357 | 0.0 | 0.0 | 0.00 | 0.00 | 0.00 | 75 | 1037.4 |
| 20260902025830 | 83 | 7 | 0.0 | 0.0 | 0.00 | 0.00 | 0.00 | 74 | 1037.7 |
| 20260902025326 | 83 | 357 | 0.0 | 0.0 | 0.00 | 0.00 | 0.00 | 75 | 1037.6 |
| 20260902024820 | 83 | 357 | 0.0 | 0.0 | 0.00 | 0.00 | 0.00 | 75 | 1037.4 |
| 20260902024316 | 83 | 357 | 0.0 | 0.0 | 0.00 | 0.00 | 0.00 | 75 | 1037.8 |
| 20260902023811 | 83 | 358 | 0.0 | 0.0 | 0.00 | 0.00 | 0.00 | 74 | 1037.5 |
| 20260902023307 | 83 | 358 | 0.0 | 0.0 | 0.00 | 0.00 | 0.00 | 74 | 1037.3 |
| 20260902022806 | 83 | 358 | 0.0 | 0.0 | 0.00 | 0.00 | 0.00 | 74 | 1037.6 |
| 20260902022301 | 83 | 358 | 0.0 | 0.0 | 0.00 | 0.00 | 0.00 | 73 | 1037.3 |
| 20260902021757 | 83 | 358 | 0.0 | 0.0 | 0.00 | 0.00 | 0.00 | 73 | 1037.3 |
| 20260902021256 | 83 | 358 | 0.0 | 0.0 | 0.00 | 0.00 | 0.00 | 73 | 1037.3 |
| 20260902020753 | 84 | 358 | 0.0 | 0.0 | 0.00 | 0.00 | 0.00 | 72 | 1037.3 |
| 20260902020249 | 84 | 358 | 0.0 | 0.0 | 0.00 | 0.00 | 0.00 | 71 | 1037.2 |
| 20260902015743 | 84 | 358 | 0.0 | 0.0 | 0.00 | 0.00 | 0.00 | 71 | 1037.2 |
| 20260902015240 | 84 | 358 | 0.0 | 0.0 | 0.00 | 0.00 | 0.00 | 71 | 1037.0 |
| 20260902014735 | 85 | 358 | 0.0 | 0.0 | 0.00 | 0.00 | 0.00 | 70 | 1037.1 |
| 20260902014232 | 85 | 359 | 0.0 | 0.0 | 0.00 | 0.00 | 0.00 | 69 | 1036.9 |
| 20260902013729 | 85 | 359 | 0.0 | 0.0 | 0.00 | 0.00 | 0.00 | 68 | 1036.9 |
| 20260902013226 | 86 | 358 | 0.0 | 0.0 | 0.00 | 0.00 | 0.00 | 67 | 1036.6 |
| 20260902012721 | 86 | 358 | 0.0 | 0.0 | 0.00 | 0.00 | 0.00 | 67 | 1036.7 |
| 20260902012217 | 86 | 358 | 0.0 | 0.0 | 0.00 | 0.00 | 0.00 | 67 | 1036.7 |
| 20260902011712 | 86 | 359 | 0.0 | 0.0 | 0.00 | 0.00 | 0.00 | 66 | 1036.8 |
| 20260902011212 | 86 | 359 | 0.0 | 0.0 | 0.00 | 0.00 | 0.00 | 67 | 1036.7 |
| 20260902010706 | 86 | 359 | 0.0 | 0.0 | 0.00 | 0.00 | 0.00 | 66 | 1036.8 |
| 20260902010202 | 86 | 359 | 0.0 | 0.0 | 0.00 | 0.00 | 0.00 | 65 | 1036.6 |
| 20260902005700 | 86 | 359 | 0.0 | 0.0 | 0.00 | 0.00 | 0.00 | 64 | 1036.5 |
| 20260902005156 | 87 | 359 | 0.0 | 0.0 | 0.00 | 0.00 | 0.00 | 64 | 1036.4 |
| 20260902004656 | 87 | 359 | 0.0 | 0.0 | 0.00 | 0.00 | 0.00 | 63 | 1036.5 |
| 20260902004150 | 87 | 359 | 0.0 | 0.0 | 0.00 | 0.00 | 0.00 | 63 | 1036.3 |
| 20260902003646 | 87 | 359 | 0.0 | 0.0 | 0.00 | 0.00 | 0.00 | 62 | 1036.1 |
| 20260902003142 | 88 | 0 | 0.0 | 0.0 | 0.00 | 0.00 | 0.00 | 62 | 1036.2 |
| 20260902002636 | 88 | 1 | 0.0 | 0.0 | 0.00 | 0.00 | 0.00 | 61 | 1036.3 |
| 20260902002131 | 88 | 354 | 0.0 | 0.0 | 0.00 | 0.00 | 0.00 | 62 | 1036.2 |
| 20260902001626 | 89 | 6 | 0.0 | 0.0 | 0.00 | 0.00 | 0.00 | 61 | 1036.3 |
| 20260902001120 | 89 | 9 | 0.0 | 0.0 | 0.00 | 0.00 | 0.00 | 61 | 1036.2 |
| 20260902000616 | 89 | 336 | 0.0 | 0.0 | 0.00 | 0.00 | 0.00 | 61 | 1036.1 |
| 20260902000111 | 89 | 353 | 0.0 | 0.0 | 0.00 | 0.00 | 0.00 | 60 | 1036.3 |
| 20260901235605 | 90 | 4 | 0.0 | 0.0 | 0.00 | 0.00 | 0.00 | 59 | 1036.5 |
| 20260901235101 | 90 | 299 | 0.0 | 0.0 | 0.00 | 0.00 | 0.00 | 59 | 1036.5 |
| 20260901234559 | 90 | 355 | 0.0 | 0.0 | 0.00 | 0.00 | 0.00 | 58 | 1036.5 |
| 20260901234054 | 90 | 356 | 0.0 | 0.0 | 0.00 | 0.00 | 0.00 | 58 | 1036.5 |
| 20260901233549 | 90 | 9 | 0.0 | 0.0 | 0.00 | 0.00 | 0.00 | 58 | 1036.6 |
| 20260901233045 | 91 | 351 | 0.0 | 0.0 | 0.00 | 0.00 | 0.00 | 57 | 1036.5 |
| 20260901232540 | 91 | 352 | 0.0 | 0.0 | 0.00 | 0.00 | 0.00 | 57 | 1036.6 |
| 20260901232035 | 91 | 2 | 0.0 | 0.0 | 0.00 | 0.00 | 0.00 | 57 | 1036.7 |
| 20260901231531 | 91 | 10 | 0.0 | 0.0 | 0.00 | 0.00 | 0.00 | 57 | 1036.4 |
| 20260901231027 | 91 | 16 | 0.0 | 0.0 | 0.00 | 0.00 | 0.00 | 57 | 1036.5 |
| 20260901230522 | 91 | 14 | 0.0 | 0.0 | 0.00 | 0.00 | 0.00 | 57 | 1036.4 |
| 20260901230017 | 91 | 7 | 0.0 | 0.0 | 0.00 | 0.00 | 0.00 | 56 | 1036.3 |
| 20260901225512 | 91 | 11 | 0.0 | 0.0 | 0.00 | 0.00 | 0.00 | 56 | 1036.5 |
| 20260901225011 | 91 | 31 | 0.0 | 0.0 | 0.00 | 0.00 | 0.00 | 56 | 1036.6 |
| 20260901223337 | 92 | 51 | 0.9 | 0.9 | 0.00 | 0.00 | 0.00 | 55 | 1036.3 |
| 20260901222832 | 92 | 51 | 0.9 | 0.9 | 0.00 | 0.00 | 0.00 | 55 | 1036.3 |
| 20260901222329 | 92 | 0 | 0.0 | 0.9 | 0.00 | 0.00 | 0.00 | 56 | 1036.3 |
| 20260901221824 | 92 | 9 | 0.0 | 0.0 | 0.00 | 0.00 | 0.00 | 56 | 1036.2 |
| 20260901221320 | 92 | 8 | 0.0 | 0.0 | 0.00 | 0.00 | 0.00 | 56 | 1036.3 |
| 20260901220819 | 92 | 173 | 0.9 | 0.9 | 0.00 | 0.00 | 0.00 | 55 | 1036.2 |
| 20260901220318 | 92 | 21 | 0.0 | 0.0 | 0.00 | 0.00 | 0.00 | 55 | 1036.4 |
| 20260901215817 | 91 | 18 | 0.0 | 0.0 | 0.00 | 0.00 | 0.00 | 57 | 1036.2 |
| 20260901215312 | 92 | 355 | 0.9 | 0.9 | 0.00 | 0.00 | 0.00 | 57 | 1036.3 |
| 20260901214810 | 91 | 83 | 0.0 | 0.9 | 0.00 | 0.00 | 0.00 | 55 | 1036.2 |
| 20260901214309 | 92 | 2 | 0.0 | 0.0 | 0.00 | 0.00 | 0.00 | 55 | 1036.6 |
| 20260901213804 | 92 | 354 | 0.0 | 0.0 | 0.00 | 0.00 | 0.00 | 55 | 1036.2 |
| 20260901213304 | 91 | 27 | 0.0 | 0.9 | 0.00 | 0.00 | 0.00 | 57 | 1036.4 |
| 20260901212759 | 92 | 19 | 0.0 | 0.0 | 0.00 | 0.00 | 0.00 | 54 | 1036.4 |
| 20260901212254 | 92 | 18 | 0.0 | 0.0 | 0.00 | 0.00 | 0.00 | 56 | 1036.4 |
| 20260901211749 | 92 | 0 | 0.0 | 0.0 | 0.00 | 0.00 | 0.00 | 54 | 1036.4 |
| 20260901211246 | 92 | 250 | 0.9 | 0.9 | 0.00 | 0.00 | 0.00 | 52 | 1036.5 |
| 20260901210741 | 92 | 43 | 0.9 | 0.9 | 0.00 | 0.00 | 0.00 | 56 | 1036.4 |
| 20260901210237 | 92 | 341 | 0.9 | 1.7 | 0.00 | 0.00 | 0.00 | 54 | 1036.5 |
| 20260901205733 | 93 | 11 | 2.6 | 2.6 | 0.00 | 0.00 | 0.00 | 53 | 1036.6 |
| 20260901205232 | 94 | 198 | 0.0 | 0.0 | 0.00 | 0.00 | 0.00 | 53 | 1036.6 |
| 20260901204728 | 93 | 182 | 1.7 | 1.7 | 0.00 | 0.00 | 0.00 | 52 | 1036.6 |
| 20260901204224 | 93 | 195 | 0.9 | 1.7 | 0.00 | 0.00 | 0.00 | 52 | 1036.6 |
| 20260901203718 | 93 | 19 | 0.0 | 0.0 | 0.00 | 0.00 | 0.00 | 55 | 1036.6 |
| 20260901203213 | 94 | 184 | 1.7 | 1.7 | 0.00 | 0.00 | 0.00 | 53 | 1036.6 |
| 20260901202712 | 94 | 64 | 0.0 | 0.9 | 0.00 | 0.00 | 0.00 | 53 | 1036.7 |
| 20260901202208 | 93 | 38 | 0.0 | 0.0 | 0.00 | 0.00 | 0.00 | 51 | 1036.9 |
| 20260901201704 | 94 | 59 | 0.0 | 0.0 | 0.00 | 0.00 | 0.00 | 51 | 1037.0 |
| 20260901201203 | 94 | 150 | 0.0 | 0.9 | 0.00 | 0.00 | 0.00 | 54 | 1037.2 |
| 20260901200703 | 93 | 29 | 0.0 | 0.0 | 0.00 | 0.00 | 0.00 | 53 | 1037.3 |
| 20260901200153 | 94 | 23 | 0.0 | 0.0 | 0.00 | 0.00 | 0.00 | 54 | 1037.2 |
| 20260901195650 | 93 | 6 | 0.0 | 0.0 | 0.00 | 0.00 | 0.00 | 53 | 1037.2 |
| 20260901195144 | 93 | 254 | 0.9 | 0.9 | 0.00 | 0.00 | 0.00 | 54 | 1037.5 |